This is the latest recevied weather packets stored in our database for station/object IT9CYW-12. If no packets are shown the sender has not sent any weather packets the latest 10 day(s).
| Time | Temp. | Humidity | Pressure | Rain* | Wind** | Luminosity | Snow |
|---|---|---|---|---|---|---|---|
| 1777500725 | 18.89° C | 52% | 978.2 hPa | - | - | 0 W/m² | - |
| 1777499824 | 18.33° C | 53% | 977.9 hPa | - | - | 0 W/m² | - |
| 1777498924 | 18.33° C | 50% | 977.9 hPa | - | - | 0 W/m² | - |
| 1777498024 | 18.33° C | 53% | 977.7 hPa | - | - | 0 W/m² | - |
| 1777497124 | 18.33° C | 52% | 977.7 hPa | - | - | 0 W/m² | - |
| 1777496223 | 18.89° C | 51% | 977.9 hPa | - | - | 0 W/m² | - |
| 1777493523 | 18.89° C | 49% | 977.9 hPa | - | - | 0 W/m² | - |
| 1777491722 | 19.44° C | 49% | 978 hPa | - | - | 0 W/m² | - |
| 1777490822 | 18.89° C | 48% | 978 hPa | - | - | 0 W/m² | - |
| 1777489922 | 18.33° C | 49% | 977.7 hPa | - | - | 0 W/m² | - |
| 1777489022 | 18.89° C | 51% | 977.7 hPa | - | - | 0 W/m² | - |
| 1777488121 | 18.33° C | 48% | 977.9 hPa | - | - | 0 W/m² | - |
| 1777487221 | 18.89° C | 47% | 977.7 hPa | - | - | 0 W/m² | - |
| 1777485428 | 18.33° C | 49% | 977.5 hPa | - | - | 1 W/m² | - |
| 1777484527 | 18.33° C | 49% | 977.4 hPa | - | - | 6 W/m² | - |
| 1777483627 | 18.89° C | 45% | 977.2 hPa | - | - | 14 W/m² | - |
| 1777482727 | 18.89° C | 44% | 977.2 hPa | - | - | 26 W/m² | - |
| 1777481827 | 19.44° C | 43% | 977.2 hPa | - | - | 36 W/m² | - |
| 1777480927 | 20° C | 41% | 977.2 hPa | - | - | 80 W/m² | - |
| 1777480026 | 20° C | 42% | 977.5 hPa | - | - | 53 W/m² | - |
| 1777479126 | 20° C | 43% | 977.5 hPa | - | - | 74 W/m² | - |
| 1777478226 | 20° C | 44% | 977.9 hPa | - | - | 103 W/m² | - |
| 1777477326 | 20° C | 45% | 978 hPa | - | - | 114 W/m² | - |
| 1777476425 | 20.56° C | 46% | 977.7 hPa | - | - | 124 W/m² | - |
| 1777475525 | 21.11° C | 46% | 978 hPa | - | - | 107 W/m² | - |
* Rain since midnight (hover to see other rain measurements)
** Current wind speed in m/s (hover to see current wind gust speed)